Location: Newark
(45.8511°N, 10.8245°E)
Time: 20:54:09
(UTC+00:00)

Envisat - Visible Passes

Search period start: 24 August 2019 00:00
Search period end: 03 September 2019 00:00
Orbit: 764 x 766 km, 98.1° (Epoch: 24 August)

Date Brightness Start Highest point End Pass type
(mag) Time Alt. Az. Time Alt. Az. Time Alt. Az.
25 Aug 5.9 18:51:43 10° SW 18:54:50 16° W 18:57:58 10° NW visible
28 Aug 5.8 18:39:45 10° SW 18:43:27 20° W 18:47:11 10° NW visible
30 Aug 6.2 19:07:34 10° WSW 19:09:18 12° W 19:11:02 10° WNW visible
31 Aug 5.5 18:27:57 10° SSW 18:32:06 25° W 18:36:16 10° NW visible
02 Sep 6.0 18:55:05 10° WSW 18:57:54 15° W 19:00:44 10° NW visible
